Вернуться в каталог

STARLINK-4756

АктивенСвязьVLEO
NORAD 53826·PAYLOAD·🇺🇸 United States

Запущен Sep 19, 2022 с Cape Canaveral Space Force Station

Loading…

Ближайшие Пролёты (ближайшие 24 часа)

TLE

СвежийSource: CelesTrak SupGP

Эпоха: Sep 14, 2026, 22:24 UTC

1 53826C 22114J   26257.93381944 -.00029519  00000+0 -87271-3 0  2579
2 53826  53.1586 165.8166 0001125 102.3091   7.8876 15.34385774    16

Отслеживайте STARLINK-4756 в реальном времени с AllMySat

Download on the App Store